Temp
6 7 7 7 7 7 7 8 7 8 8 9 11 11 12 12 12 13 13 13 13 14 15 16 17 17 19 16 14 14 15 15 15 14 15 17 16 14 13 13 11 11 10 8
5 6 6 6 7 7 7 8 8 8 8 11 11 12 11 12 12 12 12 12 11 12 14 14 15 16 17 17 16 15 15 14 14 15 14 14 14 13 13 12 10 10 8 8
5 6 5 4 6 7 7 8 8 7 9 10 10 11 12 12 12 11 11 11 11 11 11 13 14 14 15 16 17 14 14 14 15 15 15 14 14 13 12 11 10 8 7 6
4 4 4 7 8 8 7 8 8 9 10 10 10 11 11 11 12 11 11 11 12 11 11 12 13 15 15 15 15 15 13 13 13 13 14 14 13 12 11 9 8 7 5 5
4 4 6 6 8 7 7 7 8 9 9 10 11 10 10 11 11 11 11 11 10 10 10 10 12 14 14 14 15 15 15 15 14 13 13 12 12 11 9 8 7 6 6 4
2 4 2 8 9 9 8 5 9 9 8 9 9 7 9 10 11 11 11 11 11 11 10 9 11 12 13 14 14 16 16 15 13 12 12 12 11 9 7 6 7 5 4 3
4 4 5 7 8 9 6 7 10 9 9 9 7 8 10 10 10 10 10 10 11 11 10 10 10 10 13 13 13 18 17 16 14 11 11 11 9 8 6 6 5 4 3 2
4 3 4 8 7 6 8 10 10 9 9 9 9 9 10 9 8 8 9 10 10 10 9 10 9 10 11 12 13 11 13 15 13 10 9 9 8 7 5 5 4 3 2 0
4 4 6 8 9 9 8 8 8 8 8 8 9 8 9 9 9 8 9 9 10 9 9 9 9 9 10 11 11 10 12 13 12 9 9 7 6 5 3 4 4 2 0 -0
4 6 7 8 8 8 8 8 8 8 8 8 8 8 8 9 9 8 9 10 9 9 8 8 8 9 8 11 9 9 9 9 8 7 6 5 4 4 3 3 1 0 -1 -0
4 5 6 6 7 7 7 7 7 8 8 8 8 9 8 9 9 8 9 9 9 8 8 7 7 8 10 9 7 7 7 7 5 5 4 3 2 2 2 1 2 0 -0 0
4 6 6 6 7 7 7 6 7 7 8 7 7 8 8 8 8 8 9 8 8 8 7 7 6 7 9 8 5 6 6 5 4 3 2 2 1 -0 -1 -0 -1 0 0 0
5 5 5 6 6 6 6 6 6 6 7 7 7 7 7 7 8 8 8 8 7 8 6 5 6 6 8 7 5 3 4 3 3 2 1 1 -0 -1 -1 -0 -0 -1 -0 -1
6 5 4 5 5 6 6 6 6 6 6 6 7 7 7 7 8 7 7 7 7 6 5 5 6 4 7 5 2 3 2 2 1 1 0 -1 -1 -0 0 -0 -1 -1 -1 -2
5 5 5 5 5 5 5 5 4 5 5 5 6 6 7 7 7 6 6 6 6 4 4 3 2 2 1 1 1 1 1 -0 -0 -1 -1 -0 0 -0 -1 -1 -2 -2 -3 -3
3 3 3 2 2 2 2 3 3 3 4 5 5 5 6 6 5 4 3 2 2 2 1 1 0 1 0 0 0 0 -0 -1 -1 -0 -0 -0 -1 -1 -1 -2 -3 -3 -3 -3
-0 -0 -1 -1 -1 -1 -0 0 1 2 2 3 4 5 5 4 3 1 1 0 0 0 0 -0 -1 -1 -1 -1 -1 -1 -1 -1 -1 -1 -1 -1 -1 -2 -2 -3 -3 -3 -3 -2
-2 -1 -1 -2 -2 -2 -0 1 1 1 3 4 4 4 2 2 1 -0 -1 -1 -1 -1 -1 -1 -1 -1 -1 -2 -1 -1 -1 -2 -2 -2 -2 -2 -2 -2 -3 -3 -3 -3 -3 -4
-3 -3 -2 -2 -2 -2 -1 -1 -1 -1 -0 -0 -0 -1 -1 -1 -2 -2 -2 -2 -2 -2 -2 -2 -2 -2 -2 -2 -2 -2 -2 -2 -2 -2 -2 -2 -3 -3 -3 -3 -3 -3 -2 -3
-3 -3 -3 -3 -3 -3 -3 -3 -3 -3 -3 -2 -3 -3 -3 -3 -3 -3 -3 -3 -3 -3 -3 -3 -2 -2 -2 -2 -2 -2 -2 -2 -2 -2 -2 -2 -2 -3 -3 -3 -3 -3 -3 -3
-4 -4 -4 -4 -4 -4 -4 -4 -4 -4 -4 -4 -4 -4 -4 -4 -4 -4 -4 -4 -5 -4 -4 -4 -4 -3 -2 -2 -2 -2 -2 -2 -3 -3 -3 -3 -3 -3 -3 -3 -3 -4 -4 -4
-5 -5 -5 -5 -5 -5 -5 -5 -4 -4 -4 -4 -4 -4 -4 -5 -5 -5 -5 -5 -5 -5 -4 -4 -3 -4 -4 -4 -4 -4 -3 -3 -3 -4 -4 -4 -4 -4 -4 -5 -5 -5 -6 -6
-5 -5 -5 -5 -5 -5 -4 -3 -3 -3 -3 -4 -4 -4 -4 -5 -6 -5 -6 -6 -5 -5 -5 -5 -5 -5 -4 -4 -4 -4 -4 -5 -5 -5 -5 -5 -5 -6 -6 -6 -6 -7 -7 -7
-4 -5 -5 -5 -4 -4 -5 -6 -6 -6 -6 -6 -6 -6 -6 -6 -6 -7 -7 -6 -5 -5 -5 -6 -5 -5 -5 -5 -5 -5 -5 -5 -6 -6 -6 -7 -7 -7 -7 -7 -8 -8 -8 -8
-4 -5 -5 -5 -6 -7 -7 -7 -6 -7 -6 -7 -7 -7 -7 -7 -6 -8 -7 -7 -6 -6 -6 -6 -6 -6 -6 -6 -6 -6 -7 -7 -7 -7 -8 -8 -8 -8 -9 -9 -9 -10 -10 -11
-4 -4 -5 -5 -7 -7 -7 -7 -7 -8 -7 -7 -8 -8 -8 -8 -8 -7 -7 -7 -7 -7 -7 -7 -7 -7 -7 -7 -8 -8 -8 -9 -9 -9 -10 -10 -10 -11 -11 -12 -12 -12 -12 -13
-4 -5 -5 -5 -5 -5 -5 -6 -6 -7 -8 -8 -8 -9 -8 -8 -8 -8 -8 -8 -8 -8 -9 -9 -9 -9 -10 -10 -10 -10 -10 -10 -10 -11 -11 -11 -11 -12 -12 -12 -13 -13 -13 -14
Height
1492 1490 1489 1488 1486 1485 1483 1479 1481 1464 1470 1451 1435 1433 1432 1430 1429 1423 1417 1411 1404 1398 1392 1388 1382 1376 1369 1365 1366 1369 1368 1369 1370 1377 1384 1388 1393 1398 1404 1411 1416 1420 1423 1430
1487 1488 1486 1480 1471 1475 1473 1468 1469 1461 1455 1439 1434 1425 1428 1425 1422 1419 1414 1408 1402 1396 1390 1384 1380 1373 1370 1367 1367 1366 1366 1367 1369 1377 1378 1380 1386 1392 1399 1402 1407 1412 1417 1421
1477 1481 1481 1474 1457 1462 1458 1455 1457 1455 1442 1428 1431 1425 1419 1419 1416 1412 1409 1403 1398 1394 1387 1380 1376 1371 1367 1366 1363 1362 1362 1360 1366 1369 1371 1375 1381 1387 1390 1394 1400 1407 1412 1418
1482 1481 1479 1446 1442 1444 1448 1445 1448 1442 1433 1427 1421 1418 1413 1414 1410 1408 1402 1397 1392 1388 1381 1374 1369 1365 1360 1360 1357 1355 1355 1360 1361 1364 1366 1368 1373 1378 1381 1387 1392 1399 1407 1415
1481 1474 1458 1441 1437 1442 1445 1439 1435 1426 1420 1416 1416 1412 1405 1404 1404 1401 1397 1393 1390 1383 1377 1370 1365 1361 1359 1357 1349 1349 1349 1351 1353 1356 1357 1360 1365 1369 1375 1380 1388 1395 1403 1410
1482 1470 1474 1419 1425 1427 1433 1442 1406 1415 1415 1411 1411 1414 1394 1397 1396 1392 1389 1386 1381 1375 1372 1364 1358 1355 1349 1344 1341 1339 1340 1344 1346 1349 1353 1355 1357 1362 1370 1378 1384 1391 1401 1408
1463 1461 1440 1420 1422 1428 1440 1418 1404 1407 1406 1405 1406 1402 1394 1391 1388 1386 1382 1378 1374 1370 1365 1358 1353 1346 1339 1336 1333 1334 1337 1337 1336 1341 1346 1348 1352 1357 1365 1371 1381 1388 1396 1403
1454 1453 1438 1413 1417 1425 1406 1404 1403 1401 1402 1400 1398 1394 1389 1383 1380 1378 1375 1370 1367 1362 1355 1351 1349 1342 1332 1328 1325 1327 1326 1324 1327 1331 1337 1340 1344 1350 1359 1366 1374 1383 1387 1394
1440 1427 1412 1409 1409 1406 1404 1402 1395 1396 1392 1394 1389 1384 1381 1374 1372 1369 1368 1363 1359 1355 1348 1343 1339 1334 1325 1318 1309 1310 1313 1317 1318 1323 1328 1333 1339 1345 1352 1359 1365 1376 1385 1392
1433 1410 1412 1409 1408 1401 1396 1396 1388 1386 1385 1383 1380 1375 1371 1366 1362 1360 1359 1355 1350 1345 1340 1335 1330 1325 1316 1299 1297 1304 1307 1310 1316 1318 1322 1329 1336 1340 1344 1350 1359 1370 1380 1388
1418 1404 1405 1400 1397 1391 1384 1383 1381 1376 1374 1372 1371 1365 1363 1357 1353 1350 1349 1345 1342 1336 1329 1326 1326 1321 1311 1302 1300 1300 1304 1307 1312 1317 1321 1328 1336 1341 1345 1351 1352 1360 1377 1384
1406 1399 1401 1391 1377 1380 1379 1372 1372 1370 1362 1361 1361 1356 1354 1347 1344 1341 1338 1336 1332 1326 1320 1319 1317 1315 1302 1301 1300 1299 1299 1304 1311 1316 1319 1327 1335 1343 1349 1354 1362 1370 1374 1381
1398 1391 1388 1378 1372 1370 1371 1363 1360 1360 1355 1349 1346 1347 1344 1339 1334 1332 1329 1325 1322 1317 1314 1310 1307 1303 1297 1299 1299 1302 1305 1306 1310 1315 1319 1323 1331 1340 1348 1361 1367 1370 1381 1384
1388 1386 1377 1373 1367 1360 1361 1356 1353 1347 1343 1340 1335 1333 1331 1327 1325 1322 1320 1317 1313 1308 1305 1303 1300 1300 1293 1299 1302 1299 1306 1308 1310 1313 1319 1326 1334 1342 1349 1355 1364 1372 1388 1391
1378 1377 1372 1363 1361 1354 1350 1346 1341 1335 1329 1326 1323 1320 1319 1316 1315 1312 1311 1309 1306 1304 1304 1301 1301 1301 1300 1301 1302 1305 1307 1310 1314 1318 1323 1332 1338 1344 1351 1359 1366 1376 1383 1390
1371 1368 1364 1359 1353 1347 1341 1333 1330 1321 1318 1314 1312 1310 1308 1308 1306 1305 1305 1305 1305 1303 1302 1302 1303 1303 1303 1304 1307 1310 1313 1316 1319 1325 1330 1335 1340 1347 1355 1362 1370 1376 1382 1390
1365 1359 1355 1349 1346 1337 1330 1323 1318 1312 1308 1304 1301 1300 1299 1299 1300 1301 1303 1303 1304 1304 1305 1306 1306 1306 1308 1311 1313 1316 1319 1323 1327 1331 1335 1341 1347 1354 1360 1367 1372 1380 1386 1391
1365 1358 1353 1347 1338 1329 1319 1313 1307 1303 1299 1297 1294 1293 1294 1295 1296 1299 1302 1304 1306 1307 1310 1312 1311 1312 1315 1319 1321 1323 1327 1330 1334 1338 1343 1348 1354 1360 1367 1372 1378 1383 1388 1393
1358 1352 1347 1341 1334 1326 1317 1310 1304 1299 1293 1291 1290 1292 1294 1298 1301 1304 1307 1309 1310 1312 1316 1318 1318 1320 1323 1326 1328 1330 1333 1338 1343 1347 1352 1357 1361 1367 1372 1376 1380 1384 1389 1393
1354 1349 1344 1339 1333 1326 1320 1316 1310 1305 1303 1300 1299 1300 1303 1308 1310 1312 1314 1316 1319 1323 1326 1327 1329 1331 1333 1336 1336 1339 1342 1347 1351 1356 1360 1364 1368 1372 1376 1379 1382 1386 1390 1394
1354 1350 1346 1342 1336 1331 1327 1323 1319 1315 1315 1312 1311 1312 1315 1318 1319 1322 1324 1327 1334 1333 1333 1335 1337 1339 1340 1342 1345 1347 1349 1353 1356 1360 1364 1368 1371 1374 1377 1381 1384 1388 1391 1393
1359 1355 1351 1347 1343 1340 1337 1334 1330 1328 1326 1325 1325 1326 1327 1330 1333 1334 1338 1340 1342 1341 1344 1345 1346 1349 1351 1352 1355 1356 1357 1359 1363 1366 1370 1373 1376 1377 1379 1382 1384 1385 1388 1389
1364 1362 1359 1356 1353 1350 1348 1345 1343 1341 1340 1340 1339 1340 1341 1344 1346 1346 1346 1352 1352 1353 1353 1355 1358 1360 1360 1360 1362 1363 1365 1366 1369 1371 1374 1376 1378 1379 1380 1380 1382 1383 1384 1385
1370 1369 1367 1365 1363 1359 1357 1359 1356 1355 1355 1356 1355 1356 1355 1354 1355 1357 1359 1361 1362 1362 1361 1364 1366 1366 1366 1366 1367 1369 1369 1370 1371 1373 1375 1376 1377 1378 1378 1379 1379 1379 1379 1380
1376 1376 1375 1373 1371 1371 1370 1370 1367 1367 1367 1366 1367 1366 1366 1366 1364 1369 1370 1370 1370 1370 1369 1370 1371 1371 1371 1371 1371 1371 1372 1372 1373 1375 1376 1376 1375 1375 1376 1375 1375 1374 1374 1374
1382 1382 1380 1380 1379 1379 1379 1378 1376 1377 1377 1375 1375 1376 1376 1376 1377 1377 1377 1376 1376 1375 1374 1375 1375 1375 1375 1374 1374 1374 1373 1374 1374 1373 1373 1373 1372 1372 1371 1370 1369 1368 1367 1366
1386 1386 1386 1386 1385 1385 1384 1384 1383 1384 1385 1384 1382 1383 1383 1383 1382 1382 1381 1381 1380 1379 1379 1379 1379 1378 1377 1376 1375 1374 1373 1372 1370 1370 1370 1368 1367 1365 1364 1363 1362 1360 1358 1357
Wind_Speed
12 9 6 12 15 14 14 13 10 21 16 27 29 26 33 29 26 29 33 38 38 38 39 39 42 42 41 30 28 34 38 41 43 47 42 45 48 47 47 45 45 47 50 49
18 13 12 17 19 13 15 18 16 22 24 26 35 42 29 27 26 23 32 32 34 39 39 36 35 37 36 32 34 34 38 38 42 39 42 44 47 43 43 45 47 48 50 51
21 7 9 14 15 18 16 16 14 16 22 24 19 20 30 25 26 24 21 32 36 38 39 41 39 35 35 35 31 38 38 39 39 41 42 42 43 44 45 48 46 47 49 46
13 9 15 6 7 5 9 9 7 16 20 22 27 33 29 28 26 17 30 36 40 42 45 46 43 37 35 40 38 32 36 41 42 43 42 39 45 48 47 47 49 50 46 46
6 10 16 23 15 12 6 17 14 22 20 28 32 29 23 17 19 25 31 34 38 42 48 49 44 39 35 37 39 35 36 41 45 46 44 43 46 47 47 49 47 46 47 47
3 5 8 21 11 6 4 8 25 13 18 21 16 8 16 17 21 29 30 33 40 43 44 44 44 42 36 36 39 41 39 44 45 47 47 46 47 47 45 46 47 47 48 43
14 10 11 9 13 7 4 18 21 8 20 23 12 14 33 37 33 30 33 36 42 43 41 43 47 44 38 36 42 41 48 47 48 49 50 49 48 46 48 48 48 51 46 38
8 8 15 13 10 11 16 25 26 23 23 23 28 36 41 46 36 34 37 38 42 42 40 42 46 44 40 39 40 46 48 45 48 49 51 49 48 48 50 51 55 50 45 40
9 8 9 14 16 17 17 25 32 20 29 31 40 41 43 49 47 38 37 41 44 43 42 46 46 49 49 41 26 37 46 49 49 49 49 48 49 50 52 55 57 50 49 48
6 21 23 34 34 44 43 39 47 43 40 40 39 44 45 47 49 41 40 45 45 44 44 47 43 44 43 39 23 34 42 44 45 46 46 46 47 51 55 59 55 54 52 48
13 22 24 33 36 43 49 43 42 48 45 40 41 45 44 44 46 44 46 42 43 46 51 46 39 37 37 35 22 27 37 39 40 42 43 42 43 48 51 52 57 58 44 38
17 31 24 32 47 44 40 39 37 39 47 44 37 40 42 43 43 45 42 40 44 48 46 41 36 32 25 31 20 27 31 35 39 40 41 42 42 37 38 44 42 30 28 39
26 40 40 46 50 46 40 47 48 41 43 42 44 39 41 48 43 42 39 44 44 40 33 30 29 24 19 22 20 23 30 34 37 40 42 45 44 44 45 32 21 24 30 30
32 31 31 38 32 43 37 42 43 43 45 43 44 44 42 43 41 42 41 39 35 30 24 21 21 18 14 20 23 25 30 32 39 44 44 46 47 40 36 35 35 27 25 29
30 25 31 37 36 39 39 39 39 40 42 42 44 44 42 39 39 38 33 27 24 19 16 12 12 10 10 13 17 24 27 34 38 42 43 39 36 36 40 37 34 32 29 26
23 25 27 26 34 40 40 43 37 42 43 45 43 40 39 37 33 27 17 12 12 11 9 8 9 9 9 10 17 23 29 33 35 36 35 34 36 37 35 34 33 33 33 31
25 25 30 34 33 38 40 42 40 40 42 42 36 34 32 25 19 10 7 8 8 8 7 7 10 12 11 14 19 26 28 28 28 28 29 30 30 31 30 31 32 33 33 31
26 30 26 28 34 37 41 37 34 31 27 24 22 22 18 14 11 9 7 8 9 11 11 11 11 11 10 10 15 17 17 18 20 22 23 24 25 26 27 25 23 24 27 26
22 23 24 23 22 18 15 12 11 13 13 6 8 15 16 16 16 16 14 16 18 20 17 12 13 17 19 21 23 22 22 23 24 24 23 23 23 22 21 22 22 21 22 22
19 17 15 13 12 14 16 16 16 18 19 21 24 28 28 25 23 24 24 26 23 22 21 21 23 25 24 23 22 20 20 21 18 16 15 14 14 14 14 15 15 16 16 16
14 12 17 21 22 23 24 24 26 29 29 31 35 35 36 36 37 37 38 37 30 28 30 29 27 24 22 20 18 18 17 15 13 12 12 13 13 13 11 10 11 11 12 13
18 20 22 24 27 30 31 31 33 34 35 37 39 40 41 40 37 38 36 34 31 30 28 27 25 23 22 21 20 20 19 18 16 14 11 10 9 9 9 9 10 11 11 13
20 23 26 30 32 33 35 35 35 35 35 34 35 34 34 33 33 34 37 29 26 26 28 27 21 18 17 17 16 15 14 12 11 9 7 5 5 5 7 9 10 12 16 19
25 25 27 27 28 31 33 28 30 31 32 32 33 33 34 36 35 31 27 21 19 19 21 18 14 12 10 11 9 8 7 5 3 2 3 6 8 10 12 13 15 17 18 20
23 22 23 25 28 29 29 29 31 31 31 31 30 30 28 28 30 24 20 19 16 15 16 14 12 10 10 9 8 7 6 5 6 7 9 10 12 14 15 17 18 19 20 21
19 19 20 21 22 23 24 26 29 27 27 28 27 25 23 22 20 18 17 16 14 13 13 12 11 11 10 10 10 10 10 10 11 12 14 15 16 17 19 20 21 22 23 24
18 17 17 18 18 18 19 21 23 24 22 22 24 21 18 17 16 15 14 14 14 14 13 12 12 12 12 12 12 12 13 14 15 16 18 19 21 22 24 25 26 27 27 28
Wind_Direction
287 266 276 274 267 268 258 255 252 276 275 276 287 293 293 303 302 306 314 316 322 320 318 320 319 318 319 286 260 239 226 221 218 220 230 232 230 231 229 226 222 219 217 209
289 283 271 270 257 249 249 257 257 260 265 262 274 281 285 294 300 298 310 318 323 321 321 324 328 327 315 305 277 249 228 224 221 227 232 234 228 227 225 224 221 219 217 210
279 275 291 274 257 233 239 242 236 252 254 274 275 278 286 297 300 298 306 319 318 322 323 321 322 320 316 306 297 269 242 235 231 231 232 231 230 225 225 222 219 215 211 203
276 298 270 264 198 195 227 246 267 269 261 263 269 272 287 298 292 296 320 323 321 325 325 323 318 314 314 299 291 281 254 241 233 231 228 230 223 218 217 217 215 210 202 195
248 249 281 288 269 245 231 269 249 247 262 265 267 287 277 267 282 304 313 319 318 315 315 315 315 314 307 292 287 279 260 248 243 239 230 226 216 214 213 212 206 205 201 193
183 244 241 266 285 132 145 275 252 263 255 265 269 265 272 279 286 302 311 322 322 320 314 315 320 314 304 296 281 280 280 256 247 234 229 220 215 211 208 207 205 198 188 187
235 243 260 254 261 246 195 256 289 263 255 261 259 247 282 293 290 297 304 310 315 314 308 311 321 320 305 304 274 252 261 257 247 235 223 219 213 210 206 200 199 187 184 183
233 240 258 221 267 198 244 277 282 283 282 274 283 289 287 292 290 289 299 307 315 308 303 308 316 320 312 304 280 264 255 251 242 235 221 215 211 203 201 198 189 183 181 177
192 232 278 276 253 273 284 271 275 272 281 288 292 282 286 291 293 287 291 306 310 307 301 305 307 310 312 310 286 254 252 242 234 226 217 211 205 199 194 193 186 183 176 173
270 263 263 276 283 284 281 272 277 275 278 285 279 281 283 291 294 286 292 304 305 307 303 305 299 308 314 319 306 246 233 227 220 214 207 204 201 200 195 188 183 177 174 175
258 263 281 271 272 274 276 275 273 278 282 281 282 284 286 291 292 287 296 298 300 306 304 300 291 297 314 331 269 233 220 216 210 205 200 193 193 189 188 186 186 178 174 187
263 276 269 281 280 278 279 282 280 281 283 281 278 285 292 287 290 292 294 295 300 303 299 291 285 287 314 313 253 234 214 207 205 196 190 185 180 170 173 174 169 178 196 188
256 263 267 270 276 281 280 284 288 280 282 283 290 288 286 287 288 290 289 297 299 300 289 286 286 283 312 292 268 226 213 200 194 188 180 177 172 163 149 162 189 189 187 183
275 271 271 273 273 287 290 288 288 288 285 283 288 291 288 285 287 285 290 293 301 296 285 282 282 275 293 257 236 220 207 196 187 179 178 169 161 170 172 169 172 175 176 163
294 292 281 288 292 293 299 301 295 289 289 288 288 284 284 286 285 285 287 291 291 277 269 262 256 250 239 236 222 204 193 181 178 172 171 175 181 175 172 172 167 162 156 158
308 309 310 304 302 301 299 294 285 284 286 287 285 283 285 281 278 275 273 262 247 227 215 208 198 202 211 217 209 195 185 180 176 174 176 177 174 171 170 165 162 156 158 165
332 323 318 309 304 300 296 293 286 282 285 288 288 286 280 266 257 240 205 189 184 168 163 169 163 150 162 181 183 172 168 169 174 172 168 165 164 163 162 166 166 163 166 174
312 305 303 303 304 303 306 302 293 286 284 287 289 277 243 222 196 154 136 142 136 127 136 139 129 134 142 151 151 151 157 153 150 149 147 149 151 151 152 154 161 176 188 191
320 319 318 320 322 319 330 345 343 335 319 276 177 138 129 119 115 112 117 114 109 106 102 100 100 104 111 113 112 115 119 121 121 124 129 134 140 142 150 163 180 188 186 192
335 336 342 358 13 32 47 54 61 69 81 95 102 101 98 97 101 102 102 93 95 99 101 95 99 97 95 96 95 101 113 117 121 131 147 160 175 191 192 181 180 186 196 206
13 30 56 60 63 66 69 73 77 78 85 91 93 94 97 98 96 92 88 87 89 94 91 86 85 86 89 94 100 104 110 119 131 138 141 143 144 149 158 170 183 197 205 214
69 67 76 80 80 80 80 83 84 86 87 89 93 94 92 89 89 87 87 87 83 81 83 83 84 87 89 89 89 90 93 97 101 109 117 130 144 156 168 182 196 208 216 223
82 85 87 86 84 83 81 77 77 80 80 81 83 85 86 89 91 89 84 84 87 88 87 86 89 90 92 90 88 89 92 96 103 111 124 144 169 196 216 228 234 242 248 255
94 89 88 88 90 88 82 81 85 88 91 92 93 95 95 93 89 88 93 93 92 90 88 85 84 80 77 79 77 72 68 64 48 346 287 274 273 275 275 273 272 272 272 272
101 96 95 91 88 91 95 96 98 99 100 99 97 93 92 90 90 91 90 86 82 77 77 72 63 56 52 49 41 30 15 354 331 311 298 293 289 286 282 280 278 277 276 275
102 97 92 92 96 100 103 104 102 101 100 96 92 90 90 90 91 87 80 73 65 58 53 45 34 22 14 6 359 349 340 328 317 310 305 299 294 290 287 285 283 281 279 278
110 108 106 105 105 106 105 104 102 99 97 95 93 87 81 75 68 62 55 50 45 40 36 31 24 18 11 3 354 345 336 328 322 316 309 305 301 297 293 289 286 284 282 280